{"data":{"norad_id":53632,"epoch":"2026-09-20T17:42:17.326656Z","epoch_age_seconds":60729,"freshness":"FRESH","line1":"1 53632U 22104AW  26263.73770054  .00000813  00000+0  34213-4 0  9998","line2":"2 53632  53.1609  60.6533 0001197  87.6225 272.4916 15.35403283225774","mean_motion":15.35403283,"eccentricity":0.0001197,"inclination_deg":53.1609,"raan_deg":60.6533,"arg_perigee_deg":87.6225,"mean_anomaly_deg":272.4916,"bstar":3.4213e-5,"rev_number":22577,"period_min":93.786434869828,"perigee_km":458.90440375079,"apogee_km":460.54138740979,"semimajor_km":6837.8598955803,"source":"CELESTRAK","updated_at":"2026-09-21T09:00:32.944977Z"}}